Export;EXP-2023-01 (20230708 15:06);;;StationsCode;NL49551;NL49553
Periode;20060101 00:00 - 20070101 00:00;;;BeheerderMeetStation;GGD A'dam;GGD A'dam
Bron;https://data.rivm.nl/data/luchtmeetnet;;;StationsNaam;IJmuiden-Kanaaldijk;Wijk aan Zee-Burgemeester Rothestraat
Beschrijving data;https://data.rivm.nl/data/luchtmeetnet/readme.pdf;;;Latitude,Longitude;(52.463039,4.601842);(52.493992,4.601986)
Accreditatienummer;https://www.rva.nl/alle-geaccrediteerden/;;;StationsGebied;stad;stad
;;;;StationsType;industrie;industrie
;;;;Meetprincipe;Ultraviolet fluorescentie (UV-F);Ultraviolet fluorescentie (UV-F)
;;;;Meetopstelling;H2S metingen met een Thermo monitor;H2S metingen met een Thermo monitor
;;;;Accreditatienummer;nvt;nvt
Component;Bep.periode;Eenheid; Begindatumtijd;Einddatumtijd;NL49551;NL49553
H2S;uur;�g/m�;20060101 00:00;20060101 01:00;1;6
H2S;uur;�g/m�;20060101 01:00;20060101 02:00;1;5
H2S;uur;�g/m�;20060101 02:00;20060101 03:00;1;13
H2S;uur;�g/m�;20060101 03:00;20060101 04:00;1;5
H2S;uur;�g/m�;20060101 04:00;20060101 05:00;1;10
H2S;uur;�g/m�;20060101 05:00;20060101 06:00;1;8
H2S;uur;�g/m�;20060101 06:00;20060101 07:00;1;5
H2S;uur;�g/m�;20060101 07:00;20060101 08:00;1;1
H2S;uur;�g/m�;20060101 08:00;20060101 09:00;1;1
H2S;uur;�g/m�;20060101 09:00;20060101 10:00;0;4
H2S;uur;�g/m�;20060101 10:00;20060101 11:00;1;1
H2S;uur;�g/m�;20060101 11:00;20060101 12:00;;
H2S;uur;�g/m�;20060101 12:00;20060101 13:00;1;0
H2S;uur;�g/m�;20060101 13:00;20060101 14:00;1;1
H2S;uur;�g/m�;20060101 14:00;20060101 15:00;1;1
H2S;uur;�g/m�;20060101 15:00;20060101 16:00;1;0
H2S;uur;�g/m�;20060101 16:00;20060101 17:00;1;0
H2S;uur;�g/m�;20060101 17:00;20060101 18:00;1;0
H2S;uur;�g/m�;20060101 18:00;20060101 19:00;1;0
H2S;uur;�g/m�;20060101 19:00;20060101 20:00;1;0
H2S;uur;�g/m�;20060101 20:00;20060101 21:00;2;0
H2S;uur;�g/m�;20060101 21:00;20060101 22:00;2;0
H2S;uur;�g/m�;20060101 22:00;20060101 23:00;2;0
H2S;uur;�g/m�;20060101 23:00;20060102 00:00;1;0
H2S;uur;�g/m�;20060102 00:00;20060102 01:00;1;0
H2S;uur;�g/m�;20060102 01:00;20060102 02:00;1;0
H2S;uur;�g/m�;20060102 02:00;20060102 03:00;1;0
H2S;uur;�g/m�;20060102 03:00;20060102 04:00;1;0
H2S;uur;�g/m�;20060102 04:00;20060102 05:00;1;0
H2S;uur;�g/m�;20060102 05:00;20060102 06:00;1;0
H2S;uur;�g/m�;20060102 06:00;20060102 07:00;2;0
H2S;uur;�g/m�;20060102 07:00;20060102 08:00;3;0
H2S;uur;�g/m�;20060102 08:00;20060102 09:00;3;0
H2S;uur;�g/m�;20060102 09:00;20060102 10:00;1;0
H2S;uur;�g/m�;20060102 10:00;20060102 11:00;1;0
H2S;uur;�g/m�;20060102 11:00;20060102 12:00;1;0
H2S;uur;�g/m�;20060102 12:00;20060102 13:00;3;0
H2S;uur;�g/m�;20060102 13:00;20060102 14:00;1;0
H2S;uur;�g/m�;20060102 14:00;20060102 15:00;2;0
H2S;uur;�g/m�;20060102 15:00;20060102 16:00;1;0
H2S;uur;�g/m�;20060102 16:00;20060102 17:00;2;0
H2S;uur;�g/m�;20060102 17:00;20060102 18:00;1;0
H2S;uur;�g/m�;20060102 18:00;20060102 19:00;1;0
H2S;uur;�g/m�;20060102 19:00;20060102 20:00;1;0
H2S;uur;�g/m�;20060102 20:00;20060102 21:00;1;0
H2S;uur;�g/m�;20060102 21:00;20060102 22:00;2;0
H2S;uur;�g/m�;20060102 22:00;20060102 23:00;1;0
H2S;uur;�g/m�;20060102 23:00;20060103 00:00;1;0
H2S;uur;�g/m�;20060103 00:00;20060103 01:00;1;0
H2S;uur;�g/m�;20060103 01:00;20060103 02:00;1;0
H2S;uur;�g/m�;20060103 02:00;20060103 03:00;2;0
H2S;uur;�g/m�;20060103 03:00;20060103 04:00;1;1
H2S;uur;�g/m�;20060103 04:00;20060103 05:00;2;1
H2S;uur;�g/m�;20060103 05:00;20060103 06:00;1;2
H2S;uur;�g/m�;20060103 06:00;20060103 07:00;1;2
H2S;uur;�g/m�;20060103 07:00;20060103 08:00;1;1
H2S;uur;�g/m�;20060103 08:00;20060103 09:00;1;9
H2S;uur;�g/m�;20060103 09:00;20060103 10:00;1;8
H2S;uur;�g/m�;20060103 10:00;20060103 11:00;1;8
H2S;uur;�g/m�;20060103 11:00;20060103 12:00;2;5
H2S;uur;�g/m�;20060103 12:00;20060103 13:00;;
H2S;uur;�g/m�;20060103 13:00;20060103 14:00;1;6
H2S;uur;�g/m�;20060103 14:00;20060103 15:00;1;7
H2S;uur;�g/m�;20060103 15:00;20060103 16:00;1;2
H2S;uur;�g/m�;20060103 16:00;20060103 17:00;1;3
H2S;uur;�g/m�;20060103 17:00;20060103 18:00;2;3
H2S;uur;�g/m�;20060103 18:00;20060103 19:00;1;0
H2S;uur;�g/m�;20060103 19:00;20060103 20:00;0;1
H2S;uur;�g/m�;20060103 20:00;20060103 21:00;1;3
H2S;uur;�g/m�;20060103 21:00;20060103 22:00;0;2
H2S;uur;�g/m�;20060103 22:00;20060103 23:00;0;2
H2S;uur;�g/m�;20060103 23:00;20060104 00:00;1;0
H2S;uur;�g/m�;20060104 00:00;20060104 01:00;0;0
H2S;uur;�g/m�;20060104 01:00;20060104 02:00;1;2
H2S;uur;�g/m�;20060104 02:00;20060104 03:00;1;0
H2S;uur;�g/m�;20060104 03:00;20060104 04:00;1;0
H2S;uur;�g/m�;20060104 04:00;20060104 05:00;1;0
H2S;uur;�g/m�;20060104 05:00;20060104 06:00;1;0
H2S;uur;�g/m�;20060104 06:00;20060104 07:00;1;0
H2S;uur;�g/m�;20060104 07:00;20060104 08:00;1;1
H2S;uur;�g/m�;20060104 08:00;20060104 09:00;1;1
H2S;uur;�g/m�;20060104 09:00;20060104 10:00;1;0
H2S;uur;�g/m�;20060104 10:00;20060104 11:00;1;0
H2S;uur;�g/m�;20060104 11:00;20060104 12:00;1;0
H2S;uur;�g/m�;20060104 12:00;20060104 13:00;1;0
H2S;uur;�g/m�;20060104 13:00;20060104 14:00;2;0
H2S;uur;�g/m�;20060104 14:00;20060104 15:00;0;0
H2S;uur;�g/m�;20060104 15:00;20060104 16:00;1;0
H2S;uur;�g/m�;20060104 16:00;20060104 17:00;0;0
H2S;uur;�g/m�;20060104 17:00;20060104 18:00;1;0
H2S;uur;�g/m�;20060104 18:00;20060104 19:00;1;0
H2S;uur;�g/m�;20060104 19:00;20060104 20:00;2;0
H2S;uur;�g/m�;20060104 20:00;20060104 21:00;1;0
H2S;uur;�g/m�;20060104 21:00;20060104 22:00;1;0
H2S;uur;�g/m�;20060104 22:00;20060104 23:00;1;0
H2S;uur;�g/m�;20060104 23:00;20060105 00:00;1;0
H2S;uur;�g/m�;20060105 00:00;20060105 01:00;1;0
H2S;uur;�g/m�;20060105 01:00;20060105 02:00;1;0
H2S;uur;�g/m�;20060105 02:00;20060105 03:00;1;0
H2S;uur;�g/m�;20060105 03:00;20060105 04:00;0;0
H2S;uur;�g/m�;20060105 04:00;20060105 05:00;1;0
H2S;uur;�g/m�;20060105 05:00;20060105 06:00;0;0
H2S;uur;�g/m�;20060105 06:00;20060105 07:00;1;0
H2S;uur;�g/m�;20060105 07:00;20060105 08:00;1;0
H2S;uur;�g/m�;20060105 08:00;20060105 09:00;1;0
H2S;uur;�g/m�;20060105 09:00;20060105 10:00;1;0
H2S;uur;�g/m�;20060105 10:00;20060105 11:00;1;0
H2S;uur;�g/m�;20060105 11:00;20060105 12:00;1;0
H2S;uur;�g/m�;20060105 12:00;20060105 13:00;1;0
H2S;uur;�g/m�;20060105 13:00;20060105 14:00;;
H2S;uur;�g/m�;20060105 14:00;20060105 15:00;1;0
H2S;uur;�g/m�;20060105 15:00;20060105 16:00;1;0
H2S;uur;�g/m�;20060105 16:00;20060105 17:00;1;0
H2S;uur;�g/m�;20060105 17:00;20060105 18:00;1;0
H2S;uur;�g/m�;20060105 18:00;20060105 19:00;1;0
H2S;uur;�g/m�;20060105 19:00;20060105 20:00;1;0
H2S;uur;�g/m�;20060105 20:00;20060105 21:00;1;0
H2S;uur;�g/m�;20060105 21:00;20060105 22:00;1;0
H2S;uur;�g/m�;20060105 22:00;20060105 23:00;1;0
H2S;uur;�g/m�;20060105 23:00;20060106 00:00;1;0
H2S;uur;�g/m�;20060106 00:00;20060106 01:00;0;0
H2S;uur;�g/m�;20060106 01:00;20060106 02:00;1;0
H2S;uur;�g/m�;20060106 02:00;20060106 03:00;1;0
H2S;uur;�g/m�;20060106 03:00;20060106 04:00;1;0
H2S;uur;�g/m�;20060106 04:00;20060106 05:00;1;0
H2S;uur;�g/m�;20060106 05:00;20060106 06:00;1;0
H2S;uur;�g/m�;20060106 06:00;20060106 07:00;1;0
H2S;uur;�g/m�;20060106 07:00;20060106 08:00;1;0
H2S;uur;�g/m�;20060106 08:00;20060106 09:00;1;0
H2S;uur;�g/m�;20060106 09:00;20060106 10:00;1;0
H2S;uur;�g/m�;20060106 10:00;20060106 11:00;1;0
H2S;uur;�g/m�;20060106 11:00;20060106 12:00;1;0
H2S;uur;�g/m�;20060106 12:00;20060106 13:00;1;0
H2S;uur;�g/m�;20060106 13:00;20060106 14:00;0;0
H2S;uur;�g/m�;20060106 14:00;20060106 15:00;1;0
H2S;uur;�g/m�;20060106 15:00;20060106 16:00;1;0
H2S;uur;�g/m�;20060106 16:00;20060106 17:00;1;0
H2S;uur;�g/m�;20060106 17:00;20060106 18:00;1;0
H2S;uur;�g/m�;20060106 18:00;20060106 19:00;0;0
H2S;uur;�g/m�;20060106 19:00;20060106 20:00;1;0
H2S;uur;�g/m�;20060106 20:00;20060106 21:00;1;0
H2S;uur;�g/m�;20060106 21:00;20060106 22:00;1;0
H2S;uur;�g/m�;20060106 22:00;20060106 23:00;1;0
H2S;uur;�g/m�;20060106 23:00;20060107 00:00;1;0
H2S;uur;�g/m�;20060107 00:00;20060107 01:00;1;0
H2S;uur;�g/m�;20060107 01:00;20060107 02:00;1;0
H2S;uur;�g/m�;20060107 02:00;20060107 03:00;1;0
H2S;uur;�g/m�;20060107 03:00;20060107 04:00;1;0
H2S;uur;�g/m�;20060107 04:00;20060107 05:00;0;0
H2S;uur;�g/m�;20060107 05:00;20060107 06:00;1;0
H2S;uur;�g/m�;20060107 06:00;20060107 07:00;1;0
H2S;uur;�g/m�;20060107 07:00;20060107 08:00;1;0
H2S;uur;�g/m�;20060107 08:00;20060107 09:00;1;0
H2S;uur;�g/m�;20060107 09:00;20060107 10:00;1;0
H2S;uur;�g/m�;20060107 10:00;20060107 11:00;1;0
H2S;uur;�g/m�;20060107 11:00;20060107 12:00;1;0
H2S;uur;�g/m�;20060107 12:00;20060107 13:00;1;0
H2S;uur;�g/m�;20060107 13:00;20060107 14:00;1;0
H2S;uur;�g/m�;20060107 14:00;20060107 15:00;;
H2S;uur;�g/m�;20060107 15:00;20060107 16:00;1;0
H2S;uur;�g/m�;20060107 16:00;20060107 17:00;1;0
H2S;uur;�g/m�;20060107 17:00;20060107 18:00;1;0
H2S;uur;�g/m�;20060107 18:00;20060107 19:00;1;0
H2S;uur;�g/m�;20060107 19:00;20060107 20:00;0;0
H2S;uur;�g/m�;20060107 20:00;20060107 21:00;0;0
H2S;uur;�g/m�;20060107 21:00;20060107 22:00;0;0
H2S;uur;�g/m�;20060107 22:00;20060107 23:00;0;0
H2S;uur;�g/m�;20060107 23:00;20060108 00:00;1;0
H2S;uur;�g/m�;20060108 00:00;20060108 01:00;1;0
H2S;uur;�g/m�;20060108 01:00;20060108 02:00;1;0
H2S;uur;�g/m�;20060108 02:00;20060108 03:00;1;0
H2S;uur;�g/m�;20060108 03:00;20060108 04:00;0;0
H2S;uur;�g/m�;20060108 04:00;20060108 05:00;1;0
H2S;uur;�g/m�;20060108 05:00;20060108 06:00;1;0
H2S;uur;�g/m�;20060108 06:00;20060108 07:00;0;0
H2S;uur;�g/m�;20060108 07:00;20060108 08:00;0;0
H2S;uur;�g/m�;20060108 08:00;20060108 09:00;1;0
H2S;uur;�g/m�;20060108 09:00;20060108 10:00;1;0
H2S;uur;�g/m�;20060108 10:00;20060108 11:00;1;0
H2S;uur;�g/m�;20060108 11:00;20060108 12:00;0;0
H2S;uur;�g/m�;20060108 12:00;20060108 13:00;1;0
H2S;uur;�g/m�;20060108 13:00;20060108 14:00;1;0
H2S;uur;�g/m�;20060108 14:00;20060108 15:00;1;0
H2S;uur;�g/m�;20060108 15:00;20060108 16:00;1;0
H2S;uur;�g/m�;20060108 16:00;20060108 17:00;0;0
H2S;uur;�g/m�;20060108 17:00;20060108 18:00;0;0
H2S;uur;�g/m�;20060108 18:00;20060108 19:00;1;0
H2S;uur;�g/m�;20060108 19:00;20060108 20:00;0;0
H2S;uur;�g/m�;20060108 20:00;20060108 21:00;0;0
H2S;uur;�g/m�;20060108 21:00;20060108 22:00;0;0
H2S;uur;�g/m�;20060108 22:00;20060108 23:00;0;0
H2S;uur;�g/m�;20060108 23:00;20060109 00:00;0;0
H2S;uur;�g/m�;20060109 00:00;20060109 01:00;1;0
H2S;uur;�g/m�;20060109 01:00;20060109 02:00;1;0
H2S;uur;�g/m�;20060109 02:00;20060109 03:00;1;0
H2S;uur;�g/m�;20060109 03:00;20060109 04:00;1;0
H2S;uur;�g/m�;20060109 04:00;20060109 05:00;1;0
H2S;uur;�g/m�;20060109 05:00;20060109 06:00;1;0
H2S;uur;�g/m�;20060109 06:00;20060109 07:00;1;0
H2S;uur;�g/m�;20060109 07:00;20060109 08:00;1;0
H2S;uur;�g/m�;20060109 08:00;20060109 09:00;5;0
H2S;uur;�g/m�;20060109 09:00;20060109 10:00;7;0
H2S;uur;�g/m�;20060109 10:00;20060109 11:00;2;0
H2S;uur;�g/m�;20060109 11:00;20060109 12:00;0;0
H2S;uur;�g/m�;20060109 12:00;20060109 13:00;0;0
H2S;uur;�g/m�;20060109 13:00;20060109 14:00;0;0
H2S;uur;�g/m�;20060109 14:00;20060109 15:00;0;0
H2S;uur;�g/m�;20060109 15:00;20060109 16:00;;
H2S;uur;�g/m�;20060109 16:00;20060109 17:00;1;0
H2S;uur;�g/m�;20060109 17:00;20060109 18:00;0;0
H2S;uur;�g/m�;20060109 18:00;20060109 19:00;0;0
H2S;uur;�g/m�;20060109 19:00;20060109 20:00;0;1
H2S;uur;�g/m�;20060109 20:00;20060109 21:00;0;3
H2S;uur;�g/m�;20060109 21:00;20060109 22:00;1;2
H2S;uur;�g/m�;20060109 22:00;20060109 23:00;1;8
H2S;uur;�g/m�;20060109 23:00;20060110 00:00;2;15
H2S;uur;�g/m�;20060110 00:00;20060110 01:00;1;9
H2S;uur;�g/m�;20060110 01:00;20060110 02:00;1;8
H2S;uur;�g/m�;20060110 02:00;20060110 03:00;0;1
H2S;uur;�g/m�;20060110 03:00;20060110 04:00;0;1
H2S;uur;�g/m�;20060110 04:00;20060110 05:00;0;3
H2S;uur;�g/m�;20060110 05:00;20060110 06:00;0;3
H2S;uur;�g/m�;20060110 06:00;20060110 07:00;0;9
H2S;uur;�g/m�;20060110 07:00;20060110 08:00;0;10
H2S;uur;�g/m�;20060110 08:00;20060110 09:00;0;1
H2S;uur;�g/m�;20060110 09:00;20060110 10:00;0;8
H2S;uur;�g/m�;20060110 10:00;20060110 11:00;0;6
H2S;uur;�g/m�;20060110 11:00;20060110 12:00;0;16
H2S;uur;�g/m�;20060110 12:00;20060110 13:00;0;8
H2S;uur;�g/m�;20060110 13:00;20060110 14:00;0;4
H2S;uur;�g/m�;20060110 14:00;20060110 15:00;0;6
H2S;uur;�g/m�;20060110 15:00;20060110 16:00;1;5
H2S;uur;�g/m�;20060110 16:00;20060110 17:00;0;6
H2S;uur;�g/m�;20060110 17:00;20060110 18:00;1;4
H2S;uur;�g/m�;20060110 18:00;20060110 19:00;0;11
H2S;uur;�g/m�;20060110 19:00;20060110 20:00;0;8
H2S;uur;�g/m�;20060110 20:00;20060110 21:00;0;4
H2S;uur;�g/m�;20060110 21:00;20060110 22:00;0;11
H2S;uur;�g/m�;20060110 22:00;20060110 23:00;0;4
H2S;uur;�g/m�;20060110 23:00;20060111 00:00;0;12
H2S;uur;�g/m�;20060111 00:00;20060111 01:00;0;6
H2S;uur;�g/m�;20060111 01:00;20060111 02:00;1;4
H2S;uur;�g/m�;20060111 02:00;20060111 03:00;0;6
H2S;uur;�g/m�;20060111 03:00;20060111 04:00;0;6
H2S;uur;�g/m�;20060111 04:00;20060111 05:00;0;7
H2S;uur;�g/m�;20060111 05:00;20060111 06:00;0;5
H2S;uur;�g/m�;20060111 06:00;20060111 07:00;0;8
H2S;uur;�g/m�;20060111 07:00;20060111 08:00;0;5
H2S;uur;�g/m�;20060111 08:00;20060111 09:00;0;8
H2S;uur;�g/m�;20060111 09:00;20060111 10:00;0;3
H2S;uur;�g/m�;20060111 10:00;20060111 11:00;0;6
H2S;uur;�g/m�;20060111 11:00;20060111 12:00;0;3
H2S;uur;�g/m�;20060111 12:00;20060111 13:00;0;2
H2S;uur;�g/m�;20060111 13:00;20060111 14:00;0;2
H2S;uur;�g/m�;20060111 14:00;20060111 15:00;0;0
H2S;uur;�g/m�;20060111 15:00;20060111 16:00;0;0
H2S;uur;�g/m�;20060111 16:00;20060111 17:00;;
H2S;uur;�g/m�;20060111 17:00;20060111 18:00;1;1
H2S;uur;�g/m�;20060111 18:00;20060111 19:00;1;1
H2S;uur;�g/m�;20060111 19:00;20060111 20:00;1;1
H2S;uur;�g/m�;20060111 20:00;20060111 21:00;1;1
H2S;uur;�g/m�;20060111 21:00;20060111 22:00;1;1
H2S;uur;�g/m�;20060111 22:00;20060111 23:00;1;1
H2S;uur;�g/m�;20060111 23:00;20060112 00:00;1;0
H2S;uur;�g/m�;20060112 00:00;20060112 01:00;1;1
H2S;uur;�g/m�;20060112 01:00;20060112 02:00;1;1
H2S;uur;�g/m�;20060112 02:00;20060112 03:00;1;0
H2S;uur;�g/m�;20060112 03:00;20060112 04:00;1;1
H2S;uur;�g/m�;20060112 04:00;20060112 05:00;2;1
H2S;uur;�g/m�;20060112 05:00;20060112 06:00;1;1
H2S;uur;�g/m�;20060112 06:00;20060112 07:00;1;1
H2S;uur;�g/m�;20060112 07:00;20060112 08:00;1;2
H2S;uur;�g/m�;20060112 08:00;20060112 09:00;1;2
H2S;uur;�g/m�;20060112 09:00;20060112 10:00;1;2
H2S;uur;�g/m�;20060112 10:00;20060112 11:00;1;1
H2S;uur;�g/m�;20060112 11:00;20060112 12:00;1;2
H2S;uur;�g/m�;20060112 12:00;20060112 13:00;1;1
H2S;uur;�g/m�;20060112 13:00;20060112 14:00;1;1
H2S;uur;�g/m�;20060112 14:00;20060112 15:00;1;1
H2S;uur;�g/m�;20060112 15:00;20060112 16:00;1;1
H2S;uur;�g/m�;20060112 16:00;20060112 17:00;1;1
H2S;uur;�g/m�;20060112 17:00;20060112 18:00;1;1
H2S;uur;�g/m�;20060112 18:00;20060112 19:00;1;1
H2S;uur;�g/m�;20060112 19:00;20060112 20:00;1;1
H2S;uur;�g/m�;20060112 20:00;20060112 21:00;1;1
H2S;uur;�g/m�;20060112 21:00;20060112 22:00;1;1
H2S;uur;�g/m�;20060112 22:00;20060112 23:00;1;1
H2S;uur;�g/m�;20060112 23:00;20060113 00:00;1;1
H2S;uur;�g/m�;20060113 00:00;20060113 01:00;1;1
H2S;uur;�g/m�;20060113 01:00;20060113 02:00;1;1
H2S;uur;�g/m�;20060113 02:00;20060113 03:00;1;1
H2S;uur;�g/m�;20060113 03:00;20060113 04:00;2;1
H2S;uur;�g/m�;20060113 04:00;20060113 05:00;2;1
H2S;uur;�g/m�;20060113 05:00;20060113 06:00;2;1
H2S;uur;�g/m�;20060113 06:00;20060113 07:00;1;1
H2S;uur;�g/m�;20060113 07:00;20060113 08:00;2;1
H2S;uur;�g/m�;20060113 08:00;20060113 09:00;1;1
H2S;uur;�g/m�;20060113 09:00;20060113 10:00;1;1
H2S;uur;�g/m�;20060113 10:00;20060113 11:00;1;1
H2S;uur;�g/m�;20060113 11:00;20060113 12:00;2;2
H2S;uur;�g/m�;20060113 12:00;20060113 13:00;1;1
H2S;uur;�g/m�;20060113 13:00;20060113 14:00;1;1
H2S;uur;�g/m�;20060113 14:00;20060113 15:00;1;1
H2S;uur;�g/m�;20060113 15:00;20060113 16:00;2;1
H2S;uur;�g/m�;20060113 16:00;20060113 17:00;2;2
H2S;uur;�g/m�;20060113 17:00;20060113 18:00;;
H2S;uur;�g/m�;20060113 18:00;20060113 19:00;0;0
H2S;uur;�g/m�;20060113 19:00;20060113 20:00;1;0
H2S;uur;�g/m�;20060113 20:00;20060113 21:00;1;1
H2S;uur;�g/m�;20060113 21:00;20060113 22:00;1;1
H2S;uur;�g/m�;20060113 22:00;20060113 23:00;1;1
H2S;uur;�g/m�;20060113 23:00;20060114 00:00;1;2
H2S;uur;�g/m�;20060114 00:00;20060114 01:00;1;1
H2S;uur;�g/m�;20060114 01:00;20060114 02:00;1;2
H2S;uur;�g/m�;20060114 02:00;20060114 03:00;1;2
H2S;uur;�g/m�;20060114 03:00;20060114 04:00;1;0
H2S;uur;�g/m�;20060114 04:00;20060114 05:00;1;0
H2S;uur;�g/m�;20060114 05:00;20060114 06:00;1;0
H2S;uur;�g/m�;20060114 06:00;20060114 07:00;0;1
H2S;uur;�g/m�;20060114 07:00;20060114 08:00;1;1
H2S;uur;�g/m�;20060114 08:00;20060114 09:00;0;1
H2S;uur;�g/m�;20060114 09:00;20060114 10:00;0;1
H2S;uur;�g/m�;20060114 10:00;20060114 11:00;1;2
H2S;uur;�g/m�;20060114 11:00;20060114 12:00;0;1
H2S;uur;�g/m�;20060114 12:00;20060114 13:00;0;1
H2S;uur;�g/m�;20060114 13:00;20060114 14:00;1;1
H2S;uur;�g/m�;20060114 14:00;20060114 15:00;0;1
H2S;uur;�g/m�;20060114 15:00;20060114 16:00;0;0
H2S;uur;�g/m�;20060114 16:00;20060114 17:00;1;1
H2S;uur;�g/m�;20060114 17:00;20060114 18:00;1;1
H2S;uur;�g/m�;20060114 18:00;20060114 19:00;1;1
H2S;uur;�g/m�;20060114 19:00;20060114 20:00;1;1
H2S;uur;�g/m�;20060114 20:00;20060114 21:00;1;1
H2S;uur;�g/m�;20060114 21:00;20060114 22:00;1;1
H2S;uur;�g/m�;20060114 22:00;20060114 23:00;1;1
H2S;uur;�g/m�;20060114 23:00;20060115 00:00;1;1
H2S;uur;�g/m�;20060115 00:00;20060115 01:00;0;2
H2S;uur;�g/m�;20060115 01:00;20060115 02:00;0;1
H2S;uur;�g/m�;20060115 02:00;20060115 03:00;0;2
H2S;uur;�g/m�;20060115 03:00;20060115 04:00;1;1
H2S;uur;�g/m�;20060115 04:00;20060115 05:00;1;1
H2S;uur;�g/m�;20060115 05:00;20060115 06:00;1;1
H2S;uur;�g/m�;20060115 06:00;20060115 07:00;1;1
H2S;uur;�g/m�;20060115 07:00;20060115 08:00;1;1
H2S;uur;�g/m�;20060115 08:00;20060115 09:00;0;1
H2S;uur;�g/m�;20060115 09:00;20060115 10:00;1;1
H2S;uur;�g/m�;20060115 10:00;20060115 11:00;1;2
H2S;uur;�g/m�;20060115 11:00;20060115 12:00;1;1
H2S;uur;�g/m�;20060115 12:00;20060115 13:00;1;1
H2S;uur;�g/m�;20060115 13:00;20060115 14:00;1;1
H2S;uur;�g/m�;20060115 14:00;20060115 15:00;1;1
H2S;uur;�g/m�;20060115 15:00;20060115 16:00;1;1
H2S;uur;�g/m�;20060115 16:00;20060115 17:00;1;2
H2S;uur;�g/m�;20060115 17:00;20060115 18:00;2;2
H2S;uur;�g/m�;20060115 18:00;20060115 19:00;;
H2S;uur;�g/m�;20060115 19:00;20060115 20:00;1;1
H2S;uur;�g/m�;20060115 20:00;20060115 21:00;1;1
H2S;uur;�g/m�;20060115 21:00;20060115 22:00;1;1
H2S;uur;�g/m�;20060115 22:00;20060115 23:00;1;1
H2S;uur;�g/m�;20060115 23:00;20060116 00:00;1;2
H2S;uur;�g/m�;20060116 00:00;20060116 01:00;1;2
H2S;uur;�g/m�;20060116 01:00;20060116 02:00;1;2
H2S;uur;�g/m�;20060116 02:00;20060116 03:00;1;1
H2S;uur;�g/m�;20060116 03:00;20060116 04:00;1;1
H2S;uur;�g/m�;20060116 04:00;20060116 05:00;1;1
H2S;uur;�g/m�;20060116 05:00;20060116 06:00;1;1
H2S;uur;�g/m�;20060116 06:00;20060116 07:00;1;0
H2S;uur;�g/m�;20060116 07:00;20060116 08:00;1;1
H2S;uur;�g/m�;20060116 08:00;20060116 09:00;1;1
H2S;uur;�g/m�;20060116 09:00;20060116 10:00;1;1
H2S;uur;�g/m�;20060116 10:00;20060116 11:00;1;1
H2S;uur;�g/m�;20060116 11:00;20060116 12:00;1;1
H2S;uur;�g/m�;20060116 12:00;20060116 13:00;1;1
H2S;uur;�g/m�;20060116 13:00;20060116 14:00;1;1
H2S;uur;�g/m�;20060116 14:00;20060116 15:00;1;1
H2S;uur;�g/m�;20060116 15:00;20060116 16:00;1;1
H2S;uur;�g/m�;20060116 16:00;20060116 17:00;1;1
H2S;uur;�g/m�;20060116 17:00;20060116 18:00;1;1
H2S;uur;�g/m�;20060116 18:00;20060116 19:00;1;1
H2S;uur;�g/m�;20060116 19:00;20060116 20:00;1;1
H2S;uur;�g/m�;20060116 20:00;20060116 21:00;1;0
H2S;uur;�g/m�;20060116 21:00;20060116 22:00;1;0
H2S;uur;�g/m�;20060116 22:00;20060116 23:00;0;0
H2S;uur;�g/m�;20060116 23:00;20060117 00:00;1;0
H2S;uur;�g/m�;20060117 00:00;20060117 01:00;1;0
H2S;uur;�g/m�;20060117 01:00;20060117 02:00;1;0
H2S;uur;�g/m�;20060117 02:00;20060117 03:00;1;2
H2S;uur;�g/m�;20060117 03:00;20060117 04:00;1;0
H2S;uur;�g/m�;20060117 04:00;20060117 05:00;0;0
H2S;uur;�g/m�;20060117 05:00;20060117 06:00;0;0
H2S;uur;�g/m�;20060117 06:00;20060117 07:00;0;0
H2S;uur;�g/m�;20060117 07:00;20060117 08:00;0;1
H2S;uur;�g/m�;20060117 08:00;20060117 09:00;0;0
H2S;uur;�g/m�;20060117 09:00;20060117 10:00;0;0
H2S;uur;�g/m�;20060117 10:00;20060117 11:00;0;0
H2S;uur;�g/m�;20060117 11:00;20060117 12:00;0;2
H2S;uur;�g/m�;20060117 12:00;20060117 13:00;0;0
H2S;uur;�g/m�;20060117 13:00;20060117 14:00;0;0
H2S;uur;�g/m�;20060117 14:00;20060117 15:00;0;0
H2S;uur;�g/m�;20060117 15:00;20060117 16:00;0;0
H2S;uur;�g/m�;20060117 16:00;20060117 17:00;0;0
H2S;uur;�g/m�;20060117 17:00;20060117 18:00;0;0
H2S;uur;�g/m�;20060117 18:00;20060117 19:00;0;0
H2S;uur;�g/m�;20060117 19:00;20060117 20:00;;
H2S;uur;�g/m�;20060117 20:00;20060117 21:00;0;1
H2S;uur;�g/m�;20060117 21:00;20060117 22:00;0;1
H2S;uur;�g/m�;20060117 22:00;20060117 23:00;0;1
H2S;uur;�g/m�;20060117 23:00;20060118 00:00;0;1
H2S;uur;�g/m�;20060118 00:00;20060118 01:00;0;1
H2S;uur;�g/m�;20060118 01:00;20060118 02:00;0;1
H2S;uur;�g/m�;20060118 02:00;20060118 03:00;0;1
H2S;uur;�g/m�;20060118 03:00;20060118 04:00;0;0
H2S;uur;�g/m�;20060118 04:00;20060118 05:00;1;1
H2S;uur;�g/m�;20060118 05:00;20060118 06:00;0;1
H2S;uur;�g/m�;20060118 06:00;20060118 07:00;0;1
H2S;uur;�g/m�;20060118 07:00;20060118 08:00;0;1
H2S;uur;�g/m�;20060118 08:00;20060118 09:00;0;1
H2S;uur;�g/m�;20060118 09:00;20060118 10:00;0;0
H2S;uur;�g/m�;20060118 10:00;20060118 11:00;0;1
H2S;uur;�g/m�;20060118 11:00;20060118 12:00;0;0
H2S;uur;�g/m�;20060118 12:00;20060118 13:00;0;1
H2S;uur;�g/m�;20060118 13:00;20060118 14:00;0;0
H2S;uur;�g/m�;20060118 14:00;20060118 15:00;0;1
H2S;uur;�g/m�;20060118 15:00;20060118 16:00;0;0
H2S;uur;�g/m�;20060118 16:00;20060118 17:00;0;0
H2S;uur;�g/m�;20060118 17:00;20060118 18:00;0;1
H2S;uur;�g/m�;20060118 18:00;20060118 19:00;1;1
H2S;uur;�g/m�;20060118 19:00;20060118 20:00;0;0
H2S;uur;�g/m�;20060118 20:00;20060118 21:00;0;0
H2S;uur;�g/m�;20060118 21:00;20060118 22:00;0;1
H2S;uur;�g/m�;20060118 22:00;20060118 23:00;0;1
H2S;uur;�g/m�;20060118 23:00;20060119 00:00;1;1
H2S;uur;�g/m�;20060119 00:00;20060119 01:00;0;3
H2S;uur;�g/m�;20060119 01:00;20060119 02:00;0;1
H2S;uur;�g/m�;20060119 02:00;20060119 03:00;0;1
H2S;uur;�g/m�;20060119 03:00;20060119 04:00;1;1
H2S;uur;�g/m�;20060119 04:00;20060119 05:00;0;1
H2S;uur;�g/m�;20060119 05:00;20060119 06:00;0;3
H2S;uur;�g/m�;20060119 06:00;20060119 07:00;0;2
H2S;uur;�g/m�;20060119 07:00;20060119 08:00;0;1
H2S;uur;�g/m�;20060119 08:00;20060119 09:00;0;1
H2S;uur;�g/m�;20060119 09:00;20060119 10:00;1;1
H2S;uur;�g/m�;20060119 10:00;20060119 11:00;0;1
H2S;uur;�g/m�;20060119 11:00;20060119 12:00;0;3
H2S;uur;�g/m�;20060119 12:00;20060119 13:00;1;5
H2S;uur;�g/m�;20060119 13:00;20060119 14:00;0;6
H2S;uur;�g/m�;20060119 14:00;20060119 15:00;0;6
H2S;uur;�g/m�;20060119 15:00;20060119 16:00;0;4
H2S;uur;�g/m�;20060119 16:00;20060119 17:00;0;8
H2S;uur;�g/m�;20060119 17:00;20060119 18:00;0;7
H2S;uur;�g/m�;20060119 18:00;20060119 19:00;0;5
H2S;uur;�g/m�;20060119 19:00;20060119 20:00;0;3
H2S;uur;�g/m�;20060119 20:00;20060119 21:00;;
H2S;uur;�g/m�;20060119 21:00;20060119 22:00;0;2
H2S;uur;�g/m�;20060119 22:00;20060119 23:00;0;3
H2S;uur;�g/m�;20060119 23:00;20060120 00:00;0;5
H2S;uur;�g/m�;20060120 00:00;20060120 01:00;0;2
H2S;uur;�g/m�;20060120 01:00;20060120 02:00;0;2
H2S;uur;�g/m�;20060120 02:00;20060120 03:00;0;2
H2S;uur;�g/m�;20060120 03:00;20060120 04:00;0;1
H2S;uur;�g/m�;20060120 04:00;20060120 05:00;0;1
H2S;uur;�g/m�;20060120 05:00;20060120 06:00;0;2
H2S;uur;�g/m�;20060120 06:00;20060120 07:00;0;4
H2S;uur;�g/m�;20060120 07:00;20060120 08:00;0;4
H2S;uur;�g/m�;20060120 08:00;20060120 09:00;0;5
H2S;uur;�g/m�;20060120 09:00;20060120 10:00;0;5
H2S;uur;�g/m�;20060120 10:00;20060120 11:00;0;3
H2S;uur;�g/m�;20060120 11:00;20060120 12:00;0;1
H2S;uur;�g/m�;20060120 12:00;20060120 13:00;0;1
H2S;uur;�g/m�;20060120 13:00;20060120 14:00;0;1
H2S;uur;�g/m�;20060120 14:00;20060120 15:00;0;1
H2S;uur;�g/m�;20060120 15:00;20060120 16:00;0;1
H2S;uur;�g/m�;20060120 16:00;20060120 17:00;0;1